sat.trackr.live / text

‹ back to catalog

STARLINK-30303

NORAD 57677 · 2023-124Q

PAYLOAD ACTIVE UNKNOWN

§ Identity

Operator
Country
US
Launch date
2023-08-22
Launch site
AFWTR
Launch vehicle
Mass (kg)
RCS (m²)

Purposes: comms

External: N2YO · Heavens-Above · Gunter

§ Orbital elements

Epoch: 2026-09-20T14:15:20.928672Z

Period
93.85 min
Inclination
53.1628°
Eccentricity
0.0001165
Mean motion
15.34381646 rev/d
Perigee alt
462.0 km
Apogee alt
463.6 km
Semi-major
6,840.9 km
B*
-3.0205e-5
RAAN
19.0239°
Arg perigee
81.2115°
Mean anomaly
278.9019°
Rev number
17,344

§ Raw data

STARLINK-303031 57677U 23124Q   26263.59399223 -.00001396  00000+0 -30205-4 0  99992 57677  53.1628  19.0239 0001165  81.2115 278.9019 15.34381646173440

JSON: /api/v1/satellites/57677 · /tle

For live sub-satellite position, see the globe view (requires WebGL).

§ Visibility from observer

Set your observer location to see the next 7 days of passes ≥ 10°. The values pass through the URL so the page stays shareable.

No JS? Fill the form by hand. The geolocation button needs JavaScript.